This is the latest recevied weather packets stored in our database for station/object DELTON-WX. If no packets are shown the sender has not sent any weather packets the latest 10 day(s).
| Time | Temp. | Humidity | Pressure | Rain* | Wind** | Luminosity | Snow |
|---|---|---|---|---|---|---|---|
| 1777778145 | 2.78° C | 64% | 982.8 hPa | 0 mm | - | - | - |
| 1777777276 | 3.33° C | 64% | 982.8 hPa | 0 mm | - | - | - |
| 1777776345 | 3.33° C | 61% | 983.2 hPa | 0 mm | - | - | - |
| 1777775465 | 3.33° C | 66% | 983.3 hPa | 0 mm | - | - | - |
| 1777774545 | 3.33° C | 66% | 983.2 hPa | 0 mm | - | - | - |
| 1777773675 | 3.89° C | 66% | 983.2 hPa | 0 mm | - | - | - |
| 1777772746 | 3.89° C | 61% | 982.7 hPa | 0 mm | - | - | - |
| 1777771864 | 3.89° C | 61% | 982.7 hPa | 0 mm | - | - | - |
| 1777770945 | 4.44° C | 61% | 982.7 hPa | 0 mm | - | - | - |
| 1777770074 | 5° C | 61% | 982.7 hPa | 0 mm | - | - | - |
| 1777769145 | 5° C | 51% | 983.4 hPa | 0 mm | - | - | - |
| 1777768259 | 5.56° C | 51% | 983.6 hPa | 0 mm | - | - | - |
| 1777767346 | 6.11° C | 51% | 983.6 hPa | 0 mm | - | - | - |
| 1777766476 | 6.11° C | 51% | 983.6 hPa | 0 mm | - | - | - |
| 1777765546 | 6.67° C | 42% | 983.4 hPa | 0 mm | - | - | - |
| 1777764658 | 7.22° C | 44% | 983.5 hPa | 0 mm | - | - | - |
| 1777763746 | 7.22° C | 44% | 983.5 hPa | 0 mm | - | - | - |
| 1777762873 | 7.78° C | 44% | 983.5 hPa | 0 mm | - | - | - |
| 1777761946 | 7.78° C | 43% | 983.9 hPa | 0 mm | - | - | - |
| 1777761064 | 7.78° C | 44% | 984.6 hPa | 0 mm | - | - | - |
| 1777760147 | 7.78° C | 44% | 984.6 hPa | 0 mm | - | - | - |
| 1777759273 | 7.78° C | 44% | 984.6 hPa | 0 mm | - | - | - |
| 1777758347 | 7.78° C | 46% | 984.7 hPa | 0 mm | - | - | - |
| 1777757465 | 7.78° C | 43% | 984.3 hPa | 0 mm | - | - | - |
| 1777756546 | 7.78° C | 43% | 984.3 hPa | 0 mm | - | - | - |
* Rain latest hour (hover to see other rain measurements)
** Current wind speed in m/s (hover to see current wind gust speed)